Content
SEND FEEDBACK

Daily
Averages
Monthly
Summary
Greece

THESSALONIKI, GREECE


Home > Europe > Greece
Elevation: 13 feet     Latitude: 40 13N     Longitude: 022 58E

WEATHER
 
SELECT A DAY
Number of Records: 93,799;   Date Range: 7/3/96 - 7/20/14
 
SHARE

PRINT THIS DATA

[ ← Previous Day ]
WEATHER ALMANAC - FEBRUARY 6, 2013
[ Next Day → ]
[ °C ]   °F
Weather ElementAverageHighLow
Temperature48.2 °F55.4 °F (4:50 pm)39.2 °F (1:50 am)
Dewpoint42.6 °F46.4 °F (2:50 pm)37 °F (2:00 am)
Humidity80.6 %93 % (1:50 am)65 % (2:00 pm)
Barometer29.71 in29.86 in (12:50 am)29.59 in (11:20 pm)
Wind Speed5.1 mph11.5 mph (6:50 pm)
Weather ElementAverage
Visibility6.1 mi
Wind DirectionESE (123.8 °)

Weather ElementTotal
Precipitation---
Heating Degree Days17.7 (Base 65)
Averaged from 50 records on February 6, 2013
WEATHER CONDITIONS BREAKOUT
WIND DIRECTION BREAKOUT
WEATHER BY HOUR - FEBRUARY 6, 2013
[ °C ]   °F
Local TimeTemperatureDewpointHumidityBarometerVisibilityWind DirectionWind SpeedGust SpeedPrecipitationEventsConditions
12:50 AM41.0 °F37.4 °F87 %29.86 in6.2 miESE (120°)6.9 mphPartly Cloudy
1:20 AM41.0 °F37.4 °F87 %29.86 in6.2 miESE (120°)6.9 mphPartly Cloudy
1:50 AM39.2 °F37.4 °F93 %29.83 in6.2 miESE (120°)6.9 mphPartly Cloudy
2:00 AM40.0 °F37.0 °F85 %29.83 in6.0 miESE (120°)6.9 mphScattered Clouds
2:20 AM39.2 °F37.4 °F93 %29.83 in6.2 miESE (120°)6.9 mphPartly Cloudy
2:50 AM39.2 °F37.4 °F93 %29.80 in6.2 miESE (120°)6.9 mphScattered Clouds
3:20 AM41.0 °F37.4 °F87 %29.80 in6.2 miESE (120°)6.9 mphScattered Clouds
3:50 AM42.8 °F39.2 °F87 %29.80 in6.2 miESE (120°)6.9 mphScattered Clouds
4:20 AM44.6 °F39.2 °F81 %29.77 in6.2 miESE (120°)6.9 mphMostly Cloudy
4:50 AM44.6 °F39.2 °F81 %29.77 in6.2 miCalmMostly Cloudy
5:50 AM41.0 °F37.4 °F87 %29.77 in6.2 miCalmScattered Clouds
6:20 AM41.0 °F37.4 °F87 %29.77 in6.2 miCalmScattered Clouds
6:50 AM44.6 °F42.8 °F93 %29.77 in6.2 miVariable3.5 mphMostly Cloudy
7:20 AM44.6 °F42.8 °F93 %29.77 in5.6 miVariable3.5 mphMostly Cloudy
7:50 AM44.6 °F41.0 °F87 %29.77 in5.0 miVariable3.5 mphMostly Cloudy
8:00 AM44.0 °F41.0 °F83 %29.78 in5.0 mi°3.5 mphMist
8:20 AM46.4 °F42.8 °F87 %29.77 in5.0 miWest (270°)4.6 mphMostly Cloudy
8:50 AM44.6 °F41.0 °F87 %29.77 in5.0 miVariable2.3 mphMostly Cloudy
9:20 AM46.4 °F42.8 °F87 %29.77 in5.6 miCalmMostly Cloudy
9:50 AM46.4 °F42.8 °F87 %29.77 in5.6 miVariable2.3 mphMostly Cloudy
10:20 AM46.4 °F41.0 °F81 %29.77 in6.2 miWNW (290°)6.9 mphMostly Cloudy
10:50 AM46.4 °F41.0 °F81 %29.77 in6.2 miVariable3.5 mphMostly Cloudy
11:20 AM48.2 °F41.0 °F76 %29.74 in6.2 miCalmScattered Clouds
11:50 AM50.0 °F42.8 °F76 %29.74 in6.2 miVariable2.3 mphScattered Clouds
12:20 PM51.8 °F42.8 °F71 %29.71 in6.2 miVariable3.5 mphScattered Clouds
12:50 PM51.8 °F42.8 °F71 %29.68 in6.2 miWNW (290°)5.8 mphMostly Cloudy
1:20 PM51.8 °F42.8 °F71 %29.68 in6.2 miWest (280°)8.1 mphMostly Cloudy
1:50 PM53.6 °F44.6 °F72 %29.68 in6.2 miWNW (290°)9.2 mphMostly Cloudy
2:00 PM53.0 °F45.0 °F65 %29.69 in6.0 miWNW (290°)9.2 mphPartly Cloudy
2:20 PM51.8 °F44.6 °F76 %29.68 in6.2 miNW (310°)9.2 mphMostly Cloudy
2:50 PM53.6 °F46.4 °F77 %29.65 in6.2 miNNW (330°)6.9 mphMostly Cloudy
3:20 PM53.6 °F44.6 °F72 %29.65 in6.2 miNorth (360°)4.6 mphMostly Cloudy
3:50 PM53.6 °F46.4 °F77 %29.65 in6.2 miNNW (330°)5.8 mphMostly Cloudy
4:20 PM53.6 °F46.4 °F77 %29.65 in6.2 miWNW (300°)4.6 mphMostly Cloudy
4:50 PM55.4 °F46.4 °F72 %29.65 in6.2 miVariable3.5 mphMostly Cloudy
5:20 PM55.4 °F46.4 °F72 %29.65 in6.2 miSSE (160°)4.6 mphMostly Cloudy
5:50 PM53.6 °F46.4 °F77 %29.65 in6.2 miSE (130°)5.8 mphMostly Cloudy
6:20 PM53.6 °F46.4 °F77 %29.65 in6.2 miSE (130°)9.2 mphMostly Cloudy
6:50 PM53.6 °F46.4 °F77 %29.62 in6.2 miESE (120°)11.5 mphMostly Cloudy
7:20 PM53.6 °F46.4 °F77 %29.65 in6.2 miVariable3.5 mphMostly Cloudy
7:50 PM51.8 °F44.6 °F76 %29.65 in6.2 miVariable3.5 mphMostly Cloudy
8:00 PM52.0 °F45.0 °F70 %29.66 in6.0 mi°3.5 mphScattered Clouds
8:20 PM51.8 °F44.6 °F76 %29.65 in6.2 miSE (130°)4.6 mphMostly Cloudy
8:50 PM51.8 °F46.4 °F82 %29.65 in6.2 miESE (120°)4.6 mphMostly Cloudy
9:20 PM51.8 °F46.4 °F82 %29.62 in6.2 miESE (120°)4.6 mphScattered Clouds
9:50 PM51.8 °F44.6 °F76 %29.62 in6.2 miESE (120°)4.6 mphScattered Clouds
10:20 PM50.0 °F44.6 °F82 %29.62 in6.2 miESE (120°)4.6 mphScattered Clouds
10:50 PM50.0 °F44.6 °F82 %29.62 in6.2 miESE (120°)6.9 mphScattered Clouds
11:20 PM50.0 °F44.6 °F82 %29.59 in6.2 miESE (120°)6.9 mphScattered Clouds
11:50 PM50.0 °F42.8 °F76 %29.59 in6.2 miSE (130°)8.1 mphScattered Clouds
Hourly data recorded from LGTS, located miles away from Thessaloniki, Greece







STORIES FROM OUR PARTNERS